Flag for U.S.A. Weather past 2 weeks in Huntsville, Alabama, U.S.A.

Now
66 °F

Scattered clouds.


Feels Like: 66 °F
Forecast: 45 / 67 °F
Wind: 8 mph from Northwest

Location: Huntsville International / Jones Field

Current Time: Mar 30, 2015 at 1:04:26 PM

Latest Report: Mar 30, 2015 at 11:53 AM


Visibility: 10 mi

Pressure: 30.20 "Hg

Humidity: 50%

Dew point: 47 °F

Location of HuntsvilleLocation

Historic Weather in Huntsville — Graph

°F

Huntsville temperature yesterday

Maximum temperature yesterday: 61 °F (at 3:53 PM)
Minimum temperature yesterday: 29 °F (at 4:53 AM)
Average temperature yesterday: 48 °F

Past Weeks' High & Low Weather Summary

 TemperatureHumidityPressure
High80 °F (Mar 17, 3:53 PM)97% (Mar 30, 7:53 AM)30.37 "Hg (Mar 30, 7:53 AM)
Low29 °F (Mar 29, 4:53 AM)28% (Mar 28, 3:53 PM)29.76 "Hg (Mar 26, 3:53 PM)
Average58 °F66%30.08 "Hg
* Reported Mar 15 11:53 AM — Mar 30 11:53 AM, Huntsville, Weather by CustomWeather, © 2015

Note: Actual official high and low records may vary slightly from our data, if they occured in-between our weather recording intervals... More about our weather records

Advertising

Huntsville weather history for previous 24 hours

 ConditionsComfort  
Time TempWeatherWind HumidityBarometerVisibility
11:53 AM
Mon, Mar 30
66 °FScattered clouds.8 mph50%30.20 "Hg10 mi
10:53 AM64 °FPassing clouds.12 mph56%30.21 "Hg10 mi
9:53 AM62 °FPassing clouds.13 mph60%30.20 "Hg10 mi
8:53 AM59 °FPassing clouds.10 mph75%30.17 "Hg10 mi
7:53 AM56 °FPassing clouds.9 mph97%30.16 "Hg8 mi
6:53 AM56 °FPassing clouds.8 mph90%30.12 "Hg7 mi
5:53 AM56 °FFog.5 mph93%30.08 "Hg6 mi
4:55 AM56 °FThundershowers. Mostly cloudy.6 mph84%30.07 "Hg5 mi
4:53 AM56 °FLight rain. Fog.6 mph87%30.06 "Hg4 mi
4:04 AM55 °FRain. Fog.3 mph93%30.08 "Hg3 mi
3:53 AM55 °FHeavy rain. Fog.No wind93%30.08 "Hg2 mi
2:53 AM55 °FStrong thunderstorms. Fog.7 mph90%30.08 "Hg3 mi
1:53 AM61 °FMostly cloudy.20 mph67%30.02 "Hg10 mi
12:53 AM60 °FOvercast.15 mph58%30.07 "Hg10 mi
11:53 PM
Sun, Mar 29
54 °FPassing clouds.9 mph57%30.10 "Hg10 mi
10:53 PM56 °FPassing clouds.8 mph53%30.14 "Hg10 mi
9:53 PM56 °FPassing clouds.10 mph53%30.14 "Hg10 mi
8:53 PM54 °FPassing clouds.9 mph57%30.14 "Hg10 mi
7:53 PM57 °FPassing clouds.9 mph49%30.14 "Hg10 mi
6:53 PM59 °FPassing clouds.12 mph46%30.16 "Hg10 mi
5:53 PM61 °FPartly sunny.13 mph41%30.15 "Hg10 mi
4:53 PM61 °FPartly sunny.14 mph38%30.17 "Hg10 mi
3:53 PM61 °FOvercast.14 mph36%30.18 "Hg10 mi
2:53 PM60 °FOvercast.10 mph32%30.24 "Hg10 mi
1:53 PM60 °FOvercast.10 mph32%30.26 "Hg10 mi
Weather by CustomWeather, © 2015

See weather overviewHow to use our weather pages